Retour au catalogue

STARLINK-30766

ActifCommunicationsVLEO
NORAD 58125·PAYLOAD·🇺🇸 United States

Lancé Oct 22, 2023 depuis Cape Canaveral Space Force Station

Loading…

Prochains Passages (prochaines 24 heures)

TLE

FraisSource: CelesTrak SupGP

Époque: Sep 15, 2026, 01:48 UTC

1 58125C 23162H   26258.07548611  .00063318  00000+0  22927-2 0  2582
2 58125  43.0000 139.7721 0001415 268.4620 266.2885 15.27556327    10

Suivez STARLINK-30766 en temps réel avec AllMySat

Download on the App Store